New Season SmallBallMall
 
 
 
Home Forum Leagues Seasons Search Help
 

 
Small Ballers (SBS)
yesterday
 
ID#: 540321 since: 2/24/2006 Honor Rating: 4.5
United States
 

Player Pos Games AB Hits AVG 1B 2B 3B HR RBI SO ERA
John P 164 742 296 .398 264 42 13 1 192 751 2.82
Rich 2B 171 725 253 .348 227 34 12 4 128 237 -
Bob CF 148 644 251 .389 229 33 12 3 125 0 -
Spencer 1B 164 736 302 .410 272 44 25 3 191 0 -
Justin 3B 211 908 381 .419 305 83 35 0 200 0 -
Dan LF 194 836 301 .360 276 37 14 0 149 28 -
Dave RF 141 639 247 .386 186 51 30 2 111 0 -
Ron C 159 721 290 .402 267 41 9 0 157 456 -
Gavin SS 152 647 238 .367 209 36 15 1 132 0 -
Meghan 1B 166 708 292 .412 261 44 12 1 187 1K -
Nick RF 166 667 208 .311 199 28 8 1 96 0 -
Steve C 99 459 225 .490 184 34 18 0 158 0 -

Big League Ranking: 260 W/L: .493 GP: 215
  Pro League Ranking: n/a W/L: .476 GP: n/a
   To view full league stats, click on the league name.
 
Recent Games
League Date Opponent Id Letters Score W/L
BIG 3/20/21 PULUTAN 25914 PUL 2:4 L
BIG 3/22/21 west coast flyers 32556 wcf 5:4 W
BIG 3/22/21 west coast flyers 32559 wcf 0:3 L
BIG 3/22/21 west coast flyers 32564 wcf 2:3 L
BIG 3/22/21 west coast flyers 32566 wcf 2:1 W
BIG 3/22/21 west coast flyers 32567 wcf 3:2 W
BIG 3/23/21 west coast flyers 32606 wcf 2:1 W
BIG 3/23/21 west coast flyers 32609 wcf 1:3 L
BIG 3/23/21 west coast flyers 32611 wcf 3:2 W
BIG 3/23/21 west coast flyers 32612 wcf 13:0 W
BIG 3/23/21 west coast flyers 32614 wcf 7:0 W
BIG 3/24/21 Patriots 32619 379 4:7 W
BIG 3/24/21 Alabama Taters (SBD) 32621 mcg 0:2 W
BIG 3/24/21 Marley Mayhem 32622 MM 4:1 L
BIG 3/24/21 west coast flyers 32645 wcf 4:1 W
BIG 3/24/21 west coast flyers 32648 wcf 2:1 W
BIG 3/24/21 west coast flyers 32652 wcf 2:0 W
BIG 3/24/21 west coast flyers 32654 wcf 4:2 W
BIG 3/24/21 west coast flyers 32655 wcf 1:7 L
BIG 3/25/21 west coast flyers 32656 wcf 3:1 W
BIG 3/25/21 PULUTAN 32658 PUL 2:3 L
BIG 3/25/21 OneTwoThrees 32660 900 0:3 W
BIG 3/25/21 Joker's Wild 32662 (Q) 4:1 L
BIG 3/25/21 Dark Warriors 32664 666 1:0 L
BIG 3/25/21 Birdbrains 32688 GC 4:1 L
BIG 3/25/21 west coast flyers 32703 wcf 4:7 L
BIG 3/25/21 west coast flyers 32708 wcf 3:2 W
BIG 3/26/21 The Usual Suspects 32714 RGB 0:1 W
BIG 3/26/21 Husker Power 32716 Ket 6:1 L
BIG 3/26/21 west coast flyers 32725 wcf 4:0 W
BIG 3/26/21 Crimson Monkeys 32745 CM 8:3 L
BIG 3/26/21 My First Team 32746 HG6 1:0 W
BIG 3/26/21 The Sandlot Bully 32750 RGB 0:12 L
BIG 3/26/21 Def Leppard 32753 DEF 2:1 L
BIG 3/28/21 PULUTAN 32799 PUL 1:10 L
BIG 3/29/21 Kansas Jayhawks 32840 TRG 1:0 L
BIG 3/29/21 PULUTAN 32841 PUL 0:3 L
BIG 3/30/21 - 32883 - 4:3 L
BIG 3/31/21 That's Nice!! 32929 T_N 1:3 W
BIG 4/1/21 TBD 32971 DrT 2:3 W
BIG 4/1/21 RaGe's Falcons (SaM) 32973 SaM 1:5 W
BIG 4/1/21 Marley Mayhem 32975 MM 4:9 W
BIG 4/1/21 Devils in the Infield 32979 DI 6:5 L
BIG 4/1/21 Kansas Jayhawks 32986 TRG 4:7 L
BIG 4/1/21 Pinheiros Pirates 33010 PQP 2:3 L
BIG 4/2/21 PULUTAN 33011 PUL 1:4 L
BIG 4/2/21 Toronto Raptors 33015 N*S 19:0 L
BIG 4/2/21 Joker's Wild 33016 (Q) 3:2 L
BIG 4/2/21 The Sandlot Bully 33017 RGB 9:0 L
BIG 4/2/21 Alabama Taters (SBD) 33050 mcg 7:0 L
BIG 4/2/21 Def Leppard 33057 DEF 4:2 W
BIG 4/2/21 Moosonee Moose 33062 N*S 3:0 L
BIG 4/3/21 PULUTAN 33080 PUL 0:3 L
BIG 4/4/21 That 70's Team 33430 N*S 13:0 L
BIG 4/5/21 Husker Power 33556 Ket 5:8 W
BIG 4/5/21 The Sandlot Bully 33557 RGB 6:0 L
BIG 4/5/21 Native American 33560 (Q) 5:6 W
BIG 4/5/21 - 33562 - 6:5 L
BIG 4/13/21 Def Leppard 33664 D*L 3:8 L
BIG 4/15/21 Def Leppard 33677 D*L 1:3 W
BIG 4/16/21 Devils in the Infield 33688 DI 1:2 W
BIG 4/16/21 Thirteen Twenty 33691 T*T 4:3 L
User League Games
To view the opposing team's stats, click on the team name.
     
 

Privacy Policy   |    Contact Us   |    User Agreement   |    Code of Conduct